| time (UTC) | temp F | wind direction | speed MPH | gust MPH | rain 1hr in | rain 24hr in | rain mn in | humidity % | barometer mb |
| 20260506025013 | 80 | 138 | 1.0 | 7.0 | 0.00 | 0.00 | 0.00 | 80 | 1008.3 |
| 20260506024507 | 80 | 138 | 1.0 | 7.0 | 0.00 | 0.00 | 0.00 | 80 | 1008.4 |
| 20260506024000 | 80 | 132 | 1.0 | 7.0 | 0.00 | 0.00 | 0.00 | 79 | 1008.3 |
| 20260506023455 | 80 | 132 | 2.0 | 9.0 | 0.00 | 0.00 | 0.00 | 79 | 1008.0 |
| 20260506022949 | 81 | 117 | 2.0 | 9.0 | 0.00 | 0.00 | 0.00 | 78 | 1008.0 |
| 20260506022442 | 81 | 130 | 2.0 | 7.0 | 0.00 | 0.00 | 0.00 | 78 | 1007.9 |
| 20260506021937 | 81 | 111 | 2.0 | 9.0 | 0.00 | 0.00 | 0.00 | 77 | 1007.9 |
| 20260506021431 | 81 | 136 | 2.0 | 10.0 | 0.00 | 0.00 | 0.00 | 77 | 1007.9 |
| 20260506020419 | 82 | 128 | 2.0 | 8.0 | 0.00 | 0.00 | 0.00 | 77 | 1007.8 |
| 20260506015407 | 82 | 111 | 1.0 | 6.0 | 0.00 | 0.00 | 0.00 | 77 | 1007.8 |
| 20260506014907 | 82 | 109 | 1.0 | 4.0 | 0.00 | 0.00 | 0.00 | 77 | 1007.6 |
| 20260506014406 | 82 | 111 | 1.0 | 4.0 | 0.00 | 0.00 | 0.00 | 76 | 1007.6 |
| 20260506014137 | 82 | 109 | 1.0 | 4.0 | 0.00 | 0.00 | 0.00 | 76 | 1007.4 |
| 20260506013637 | 82 | 111 | 0.0 | 3.0 | 0.00 | 0.00 | 0.00 | 76 | 1007.4 |
| 20260506012903 | 82 | 111 | 0.0 | 3.0 | 0.00 | 0.00 | 0.00 | 76 | 1007.3 |
| 20260506012403 | 82 | 112 | 0.0 | 0.0 | 0.00 | 0.00 | 0.00 | 75 | 1007.2 |
| 20260506011903 | 82 | 113 | 0.0 | 0.0 | 0.00 | 0.00 | 0.00 | 75 | 1007.2 |
| 20260506011401 | 83 | 113 | 0.0 | 0.0 | 0.00 | 0.00 | 0.00 | 75 | 1007.2 |
| 20260506010859 | 83 | 113 | 0.0 | 0.0 | 0.00 | 0.00 | 0.00 | 74 | 1007.2 |
| 20260506010358 | 83 | 113 | 0.0 | 0.0 | 0.00 | 0.00 | 0.00 | 74 | 1007.2 |
| 20260506005857 | 84 | 113 | 0.0 | 0.0 | 0.00 | 0.00 | 0.00 | 73 | 1007.1 |
| 20260506005357 | 84 | 113 | 0.0 | 0.0 | 0.00 | 0.00 | 0.00 | 72 | 1007.1 |
| 20260506004855 | 84 | 113 | 0.0 | 0.0 | 0.00 | 0.00 | 0.00 | 71 | 1007.0 |
| 20260506004353 | 85 | 113 | 0.0 | 0.0 | 0.00 | 0.00 | 0.00 | 71 | 1006.9 |
| 20260506003851 | 85 | 113 | 0.0 | 0.0 | 0.00 | 0.00 | 0.00 | 70 | 1007.1 |
| 20260506003349 | 85 | 113 | 0.0 | 0.0 | 0.00 | 0.00 | 0.00 | 70 | 1007.1 |
| 20260506003122 | 85 | 113 | 0.0 | 0.0 | 0.00 | 0.00 | 0.00 | 69 | 1007.1 |
| 20260506002347 | 86 | 113 | 0.0 | 0.0 | 0.00 | 0.00 | 0.00 | 69 | 1007.1 |
| 20260506001844 | 86 | 113 | 0.0 | 0.0 | 0.00 | 0.00 | 0.00 | 69 | 1007.0 |
| 20260506001345 | 86 | 113 | 0.0 | 0.0 | 0.00 | 0.00 | 0.00 | 69 | 1007.0 |
| 20260506000845 | 86 | 113 | 0.0 | 0.0 | 0.00 | 0.00 | 0.00 | 69 | 1006.9 |
| 20260506000346 | 86 | 113 | 0.0 | 0.0 | 0.00 | 0.00 | 0.00 | 69 | 1006.9 |
| 20260505235843 | 86 | 113 | 0.0 | 2.0 | 0.00 | 0.00 | 0.00 | 68 | 1006.9 |
| 20260505235615 | 86 | 113 | 0.0 | 2.0 | 0.00 | 0.00 | 0.00 | 68 | 1006.9 |
| 20260505234843 | 86 | 113 | 0.0 | 2.0 | 0.00 | 0.00 | 0.00 | 68 | 1006.9 |
| 20260505234343 | 86 | 113 | 1.0 | 4.0 | 0.00 | 0.00 | 0.00 | 68 | 1006.9 |
| 20260505233843 | 86 | 113 | 1.0 | 4.0 | 0.00 | 0.00 | 0.00 | 68 | 1006.9 |
| 20260505233343 | 86 | 108 | 2.0 | 6.0 | 0.00 | 0.00 | 0.00 | 67 | 1006.9 |
| 20260505232843 | 86 | 102 | 1.0 | 6.0 | 0.00 | 0.00 | 0.00 | 68 | 1006.8 |
| 20260505232339 | 86 | 156 | 0.0 | 3.0 | 0.00 | 0.00 | 0.00 | 69 | 1006.9 |
| 20260505231839 | 86 | 156 | 1.0 | 6.0 | 0.00 | 0.00 | 0.00 | 69 | 1006.8 |
| 20260505231610 | 86 | 156 | 1.0 | 6.0 | 0.00 | 0.00 | 0.00 | 68 | 1006.9 |
| 20260505230839 | 86 | 212 | 1.0 | 3.0 | 0.00 | 0.00 | 0.00 | 69 | 1006.8 |
| 20260505230611 | 86 | 217 | 1.0 | 4.0 | 0.00 | 0.00 | 0.00 | 68 | 1006.8 |
| 20260505225839 | 85 | 217 | 2.0 | 4.0 | 0.00 | 0.00 | 0.00 | 69 | 1006.8 |
| 20260505224838 | 85 | 213 | 2.0 | 7.0 | 0.00 | 0.00 | 0.00 | 69 | 1006.8 |
| 20260505224339 | 85 | 217 | 2.0 | 7.0 | 0.00 | 0.00 | 0.00 | 68 | 1006.8 |
| 20260505223837 | 85 | 158 | 1.0 | 5.0 | 0.00 | 0.00 | 0.00 | 69 | 1006.9 |
| 20260505223337 | 85 | 157 | 1.0 | 8.0 | 0.00 | 0.00 | 0.00 | 70 | 1006.9 |
| 20260505222837 | 85 | 157 | 2.0 | 8.0 | 0.00 | 0.00 | 0.00 | 69 | 1006.8 |
| 20260505222334 | 85 | 271 | 2.0 | 7.0 | 0.00 | 0.00 | 0.00 | 70 | 1006.8 |
| 20260505221833 | 84 | 251 | 2.0 | 7.0 | 0.00 | 0.00 | 0.00 | 70 | 1006.8 |
| 20260505221330 | 84 | 234 | 3.0 | 7.0 | 0.00 | 0.00 | 0.00 | 70 | 1006.8 |
| 20260505220833 | 84 | 159 | 3.0 | 7.0 | 0.00 | 0.00 | 0.00 | 71 | 1006.9 |
| 20260505220331 | 84 | 159 | 3.0 | 7.0 | 0.00 | 0.00 | 0.00 | 70 | 1006.9 |
| 20260505215331 | 85 | 170 | 3.0 | 8.0 | 0.00 | 0.00 | 0.00 | 69 | 1007.0 |
| 20260505214830 | 85 | 150 | 3.0 | 8.0 | 0.00 | 0.00 | 0.00 | 69 | 1007.0 |
| 20260505214328 | 85 | 196 | 2.0 | 6.0 | 0.00 | 0.00 | 0.00 | 69 | 1007.1 |
| 20260505213827 | 85 | 153 | 2.0 | 9.0 | 0.00 | 0.00 | 0.00 | 69 | 1007.2 |
| 20260505213327 | 85 | 153 | 2.0 | 9.0 | 0.00 | 0.00 | 0.00 | 69 | 1007.2 |
| 20260505213057 | 86 | 116 | 2.0 | 7.0 | 0.00 | 0.00 | 0.00 | 69 | 1007.3 |
| 20260505212327 | 86 | 194 | 2.0 | 7.0 | 0.00 | 0.00 | 0.00 | 69 | 1007.4 |
| 20260505211827 | 86 | 271 | 2.0 | 7.0 | 0.00 | 0.00 | 0.00 | 68 | 1007.4 |
| 20260505211329 | 86 | 218 | 1.0 | 4.0 | 0.00 | 0.00 | 0.00 | 69 | 1007.4 |
| 20260505211053 | 85 | 218 | 2.0 | 6.0 | 0.00 | 0.00 | 0.00 | 70 | 1007.6 |
| 20260505210317 | 85 | 219 | 2.0 | 8.0 | 0.00 | 0.00 | 0.00 | 69 | 1007.6 |
| 20260505210041 | 85 | 229 | 2.0 | 8.0 | 0.00 | 0.00 | 0.00 | 69 | 1007.7 |
| 20260505205305 | 85 | 151 | 3.0 | 9.0 | 0.00 | 0.00 | 0.00 | 68 | 1007.8 |
| 20260505204759 | 85 | 224 | 2.0 | 9.0 | 0.00 | 0.00 | 0.00 | 68 | 1007.9 |
| 20260505204523 | 85 | 200 | 2.0 | 7.0 | 0.00 | 0.00 | 0.00 | 70 | 1007.9 |
| 20260505203747 | 85 | 202 | 2.0 | 7.0 | 0.00 | 0.00 | 0.00 | 69 | 1008.1 |
| 20260505203241 | 84 | 215 | 2.0 | 9.0 | 0.00 | 0.00 | 0.00 | 71 | 1008.1 |
| 20260505202735 | 83 | 278 | 3.0 | 9.0 | 0.00 | 0.00 | 0.00 | 73 | 1008.2 |
| 20260505202228 | 83 | 158 | 3.0 | 7.0 | 0.00 | 0.00 | 0.00 | 72 | 1008.2 |
| 20260505201954 | 83 | 163 | 3.0 | 7.0 | 0.00 | 0.00 | 0.00 | 72 | 1008.4 |
| 20260505201216 | 83 | 177 | 3.0 | 7.0 | 0.00 | 0.00 | 0.00 | 72 | 1008.4 |
| 20260505200710 | 83 | 163 | 2.0 | 7.0 | 0.00 | 0.00 | 0.00 | 72 | 1008.5 |
| 20260505200205 | 84 | 153 | 2.0 | 7.0 | 0.00 | 0.00 | 0.00 | 71 | 1008.5 |
| 20260505195659 | 83 | 187 | 2.0 | 5.0 | 0.00 | 0.00 | 0.00 | 72 | 1008.5 |
| 20260505195153 | 83 | 180 | 2.0 | 5.0 | 0.00 | 0.00 | 0.00 | 72 | 1008.6 |
| 20260505194647 | 83 | 168 | 2.0 | 5.0 | 0.00 | 0.00 | 0.00 | 72 | 1008.6 |
| 20260505194140 | 84 | 177 | 2.0 | 7.0 | 0.00 | 0.00 | 0.00 | 71 | 1008.7 |
| 20260505193907 | 83 | 205 | 1.0 | 7.0 | 0.00 | 0.00 | 0.00 | 72 | 1008.8 |
| 20260505193359 | 83 | 206 | 2.0 | 8.0 | 0.00 | 0.00 | 0.00 | 73 | 1008.7 |
| 20260505192622 | 82 | 178 | 2.0 | 8.0 | 0.00 | 0.00 | 0.00 | 73 | 1008.8 |
| 20260505192116 | 82 | 301 | 2.0 | 8.0 | 0.00 | 0.00 | 0.00 | 73 | 1008.8 |
| 20260505191611 | 82 | 223 | 3.0 | 8.0 | 0.00 | 0.00 | 0.00 | 73 | 1008.9 |
| 20260505191105 | 82 | 233 | 3.0 | 11.0 | 0.00 | 0.00 | 0.00 | 74 | 1009.0 |
| 20260505190053 | 81 | 202 | 1.0 | 6.0 | 0.00 | 0.00 | 0.00 | 75 | 1009.1 |
| 20260505185817 | 81 | 219 | 1.0 | 8.0 | 0.00 | 0.00 | 0.00 | 74 | 1009.2 |
| 20260505185041 | 81 | 209 | 1.0 | 8.0 | 0.00 | 0.00 | 0.00 | 75 | 1009.5 |
| 20260505184535 | 81 | 244 | 1.0 | 7.0 | 0.00 | 0.00 | 0.00 | 76 | 1009.5 |
| 20260505184029 | 81 | 244 | 1.0 | 7.0 | 0.00 | 0.00 | 0.00 | 76 | 1009.6 |
| 20260505183524 | 80 | 205 | 1.0 | 6.0 | 0.00 | 0.00 | 0.00 | 77 | 1009.7 |
| 20260505183024 | 80 | 259 | 2.0 | 6.0 | 0.00 | 0.00 | 0.00 | 76 | 1009.7 |
| 20260505182522 | 80 | 194 | 2.0 | 6.0 | 0.00 | 0.00 | 0.00 | 77 | 1009.9 |
| 20260505182252 | 80 | 242 | 2.0 | 6.0 | 0.00 | 0.00 | 0.00 | 77 | 1009.9 |
| 20260505181522 | 80 | 223 | 2.0 | 8.0 | 0.00 | 0.00 | 0.00 | 77 | 1010.0 |
| 20260505181022 | 79 | 280 | 2.0 | 8.0 | 0.00 | 0.00 | 0.00 | 79 | 1010.0 |
| 20260505180522 | 79 | 160 | 2.0 | 9.0 | 0.00 | 0.00 | 0.00 | 79 | 1010.0 |
| 20260505180020 | 78 | 307 | 3.0 | 10.0 | 0.00 | 0.00 | 0.00 | 80 | 1010.0 |
| 20260505175750 | 78 | 167 | 2.0 | 10.0 | 0.00 | 0.00 | 0.00 | 80 | 1010.0 |
| 20260505175020 | 78 | 181 | 1.0 | 5.0 | 0.00 | 0.00 | 0.00 | 81 | 1010.0 |
| 20260505174518 | 78 | 231 | 1.0 | 4.0 | 0.00 | 0.00 | 0.00 | 81 | 1010.0 |
| 20260505174018 | 77 | 237 | 1.0 | 4.0 | 0.00 | 0.00 | 0.00 | 81 | 1010.0 |
| 20260505173518 | 77 | 236 | 2.0 | 6.0 | 0.00 | 0.00 | 0.00 | 81 | 1010.0 |
| 20260505173248 | 77 | 241 | 2.0 | 7.0 | 0.00 | 0.00 | 0.00 | 81 | 1010.1 |
| 20260505172514 | 76 | 253 | 2.0 | 7.0 | 0.00 | 0.00 | 0.00 | 83 | 1010.0 |
| 20260505172013 | 76 | 242 | 2.0 | 7.0 | 0.00 | 0.00 | 0.00 | 83 | 1010.1 |
| 20260505171514 | 76 | 242 | 1.0 | 7.0 | 0.00 | 0.00 | 0.00 | 83 | 1010.1 |
| 20260505171014 | 76 | 230 | 1.0 | 7.0 | 0.00 | 0.00 | 0.00 | 85 | 1010.2 |
| 20260505170514 | 75 | 240 | 1.0 | 7.0 | 0.00 | 0.00 | 0.00 | 85 | 1010.2 |
| 20260505170012 | 75 | 292 | 1.0 | 7.0 | 0.00 | 0.00 | 0.00 | 86 | 1010.2 |
| 20260505165511 | 74 | 172 | 2.0 | 7.0 | 0.00 | 0.00 | 0.00 | 87 | 1010.1 |
| 20260505165245 | 74 | 196 | 2.0 | 7.0 | 0.00 | 0.00 | 0.00 | 87 | 1010.2 |
| 20260505164746 | 74 | 194 | 1.0 | 7.0 | 0.00 | 0.00 | 0.00 | 88 | 1010.1 |
| 20260505164243 | 73 | 212 | 1.0 | 6.0 | 0.00 | 0.00 | 0.00 | 89 | 1010.1 |
| 20260505163511 | 73 | 212 | 1.0 | 6.0 | 0.00 | 0.00 | 0.00 | 90 | 1010.1 |
| 20260505163243 | 72 | 173 | 1.0 | 5.0 | 0.00 | 0.00 | 0.00 | 90 | 1010.2 |
| 20260505162511 | 72 | 171 | 2.0 | 5.0 | 0.00 | 0.00 | 0.00 | 91 | 1010.1 |
| 20260505162008 | 72 | 271 | 1.0 | 4.0 | 0.00 | 0.00 | 0.00 | 91 | 1010.3 |
| 20260505161508 | 71 | 277 | 1.0 | 5.0 | 0.00 | 0.00 | 0.00 | 92 | 1010.3 |
| 20260505161007 | 71 | 280 | 2.0 | 5.0 | 0.00 | 0.00 | 0.00 | 92 | 1010.3 |
| 20260505160507 | 71 | 227 | 1.0 | 5.0 | 0.00 | 0.00 | 0.00 | 92 | 1010.3 |
| 20260505152955 | 70 | 269 | 1.0 | 7.0 | 0.00 | 0.00 | 0.00 | 93 | 1010.3 |
| 20260505152449 | 70 | 271 | 1.0 | 7.0 | 0.00 | 0.00 | 0.00 | 93 | 1010.3 |
| 20260505151943 | 70 | 232 | 1.0 | 8.0 | 0.00 | 0.00 | 0.00 | 93 | 1010.3 |
| 20260505151437 | 70 | 259 | 1.0 | 8.0 | 0.00 | 0.00 | 0.00 | 93 | 1010.3 |
| 20260505150931 | 70 | 219 | 1.0 | 6.0 | 0.00 | 0.00 | 0.00 | 93 | 1010.2 |
| 20260505150656 | 70 | 214 | 1.0 | 6.0 | 0.00 | 0.00 | 0.00 | 93 | 1010.1 |
| 20260505140313 | 69 | 160 | 2.0 | 7.0 | 0.00 | 0.00 | 0.00 | 93 | 1010.1 |
| 20260505130213 | 68 | 142 | 2.0 | 8.0 | 0.00 | 0.00 | 0.00 | 92 | 1010.0 |
| 20260505124944 | 68 | 202 | 1.0 | 11.0 | 0.00 | 0.00 | 0.00 | 92 | 1009.9 |
| 20260505124442 | 68 | 242 | 2.0 | 11.0 | 0.00 | 0.00 | 0.00 | 92 | 1009.9 |
| 20260505123711 | 68 | 234 | 2.0 | 9.0 | 0.00 | 0.00 | 0.00 | 92 | 1009.8 |
| 20260505123442 | 68 | 236 | 2.0 | 9.0 | 0.00 | 0.00 | 0.00 | 92 | 1009.7 |
| 20260505122709 | 68 | 146 | 2.0 | 9.0 | 0.00 | 0.00 | 0.00 | 92 | 1009.6 |
| 20260505122209 | 68 | 200 | 2.0 | 9.0 | 0.00 | 0.00 | 0.00 | 92 | 1009.3 |
| 20260505121709 | 68 | 139 | 1.0 | 7.0 | 0.00 | 0.00 | 0.00 | 92 | 1009.3 |
| 20260505121439 | 68 | 224 | 2.0 | 11.0 | 0.00 | 0.00 | 0.00 | 92 | 1009.2 |
| 20260505120941 | 68 | 211 | 2.0 | 11.0 | 0.00 | 0.00 | 0.00 | 91 | 1009.2 |
| 20260505120209 | 68 | 185 | 1.0 | 6.0 | 0.00 | 0.00 | 0.00 | 91 | 1009.1 |
| 20260505115708 | 68 | 184 | 2.0 | 9.0 | 0.00 | 0.00 | 0.00 | 91 | 1009.1 |
| 20260505115207 | 68 | 227 | 2.0 | 9.0 | 0.00 | 0.00 | 0.00 | 91 | 1009.0 |
| 20260505114707 | 68 | 223 | 1.0 | 6.0 | 0.00 | 0.00 | 0.00 | 91 | 1009.0 |
| 20260505114201 | 68 | 243 | 1.0 | 5.0 | 0.00 | 0.00 | 0.00 | 91 | 1009.0 |
| 20260505113655 | 68 | 209 | 2.0 | 7.0 | 0.00 | 0.00 | 0.00 | 91 | 1009.0 |
| 20260505113148 | 68 | 209 | 1.0 | 7.0 | 0.00 | 0.00 | 0.00 | 91 | 1009.0 |
| 20260505112643 | 68 | 196 | 1.0 | 6.0 | 0.00 | 0.00 | 0.00 | 91 | 1008.9 |
| 20260505112137 | 68 | 196 | 2.0 | 6.0 | 0.00 | 0.00 | 0.00 | 91 | 1008.9 |
| 20260505111631 | 68 | 199 | 1.0 | 5.0 | 0.00 | 0.00 | 0.00 | 91 | 1008.9 |
| 20260505111125 | 68 | 206 | 1.0 | 7.0 | 0.00 | 0.00 | 0.00 | 91 | 1009.0 |
| 20260505110619 | 68 | 211 | 1.0 | 7.0 | 0.00 | 0.00 | 0.00 | 91 | 1009.0 |
| 20260505110345 | 68 | 148 | 1.0 | 7.0 | 0.00 | 0.00 | 0.00 | 91 | 1009.0 |
| 20260505102042 | 68 | 200 | 2.0 | 7.0 | 0.00 | 0.00 | 0.00 | 91 | 1009.0 |
| 20260505101543 | 68 | 163 | 2.0 | 7.0 | 0.00 | 0.00 | 0.00 | 91 | 1009.0 |
| 20260505101043 | 68 | 213 | 1.0 | 7.0 | 0.00 | 0.00 | 0.00 | 91 | 1009.0 |
| 20260505100559 | 68 | 192 | 1.0 | 8.0 | 0.00 | 0.00 | 0.00 | 90 | 1009.1 |
| 20260505100043 | 68 | 209 | 2.0 | 8.0 | 0.00 | 0.00 | 0.00 | 91 | 1009.2 |
| 20260505095041 | 68 | 260 | 1.0 | 8.0 | 0.00 | 0.00 | 0.00 | 91 | 1009.1 |
| 20260505094541 | 68 | 222 | 1.0 | 6.0 | 0.00 | 0.00 | 0.00 | 90 | 1009.1 |
| 20260505094041 | 68 | 234 | 2.0 | 8.0 | 0.00 | 0.00 | 0.00 | 90 | 1009.2 |
| 20260505093541 | 69 | 232 | 2.0 | 8.0 | 0.00 | 0.00 | 0.00 | 90 | 1009.2 |
| 20260505093042 | 69 | 206 | 1.0 | 6.0 | 0.00 | 0.00 | 0.00 | 90 | 1009.3 |
| 20260505092541 | 69 | 257 | 1.0 | 10.0 | 0.00 | 0.00 | 0.00 | 90 | 1009.3 |
| 20260505092041 | 69 | 148 | 1.0 | 10.0 | 0.00 | 0.00 | 0.00 | 90 | 1009.5 |
| 20260505091540 | 69 | 260 | 2.0 | 6.0 | 0.00 | 0.00 | 0.00 | 90 | 1009.5 |
| 20260505091041 | 69 | 188 | 2.0 | 9.0 | 0.00 | 0.00 | 0.00 | 90 | 1009.3 |
| 20260505090541 | 69 | 169 | 2.0 | 9.0 | 0.00 | 0.00 | 0.00 | 90 | 1009.3 |
| 20260505090040 | 69 | 200 | 2.0 | 8.0 | 0.00 | 0.00 | 0.00 | 90 | 1009.3 |
| 20260505085540 | 69 | 205 | 2.0 | 7.0 | 0.00 | 0.00 | 0.00 | 90 | 1009.3 |
| 20260505085041 | 69 | 191 | 1.0 | 5.0 | 0.00 | 0.00 | 0.00 | 90 | 1009.3 |
| 20260505084540 | 69 | 188 | 2.0 | 5.0 | 0.00 | 0.00 | 0.00 | 90 | 1009.3 |
| 20260505084040 | 69 | 197 | 2.0 | 7.0 | 0.00 | 0.00 | 0.00 | 90 | 1009.5 |
| 20260505083541 | 69 | 160 | 2.0 | 10.0 | 0.00 | 0.00 | 0.00 | 89 | 1009.3 |
| 20260505082538 | 69 | 136 | 3.0 | 7.0 | 0.00 | 0.00 | 0.00 | 89 | 1009.5 |
| 20260505082038 | 69 | 163 | 3.0 | 8.0 | 0.00 | 0.00 | 0.00 | 89 | 1009.7 |
| 20260505081539 | 69 | 210 | 2.0 | 8.0 | 0.00 | 0.00 | 0.00 | 89 | 1009.7 |
| 20260505081307 | 69 | 186 | 2.0 | 8.0 | 0.00 | 0.00 | 0.00 | 89 | 1009.9 |
| 20260505080536 | 69 | 248 | 3.0 | 11.0 | 0.00 | 0.00 | 0.00 | 89 | 1010.0 |
| 20260505080036 | 69 | 150 | 3.0 | 11.0 | 0.00 | 0.00 | 0.00 | 89 | 1009.9 |
| 20260505075537 | 69 | 252 | 2.0 | 8.0 | 0.00 | 0.00 | 0.00 | 89 | 1009.9 |
| 20260505075036 | 69 | 171 | 2.0 | 8.0 | 0.00 | 0.00 | 0.00 | 89 | 1010.1 |
| 20260505074806 | 69 | 240 | 2.0 | 8.0 | 0.00 | 0.00 | 0.00 | 89 | 1010.2 |
| 20260505074034 | 69 | 226 | 1.0 | 6.0 | 0.00 | 0.00 | 0.00 | 89 | 1010.2 |
| 20260505073528 | 69 | 235 | 2.0 | 7.0 | 0.00 | 0.00 | 0.00 | 89 | 1010.1 |
| 20260505072516 | 69 | 153 | 2.0 | 9.0 | 0.00 | 0.00 | 0.00 | 89 | 1010.5 |
| 20260505072011 | 69 | 171 | 2.0 | 9.0 | 0.00 | 0.00 | 0.00 | 88 | 1010.5 |
| 20260505071504 | 69 | 229 | 2.0 | 8.0 | 0.00 | 0.00 | 0.00 | 88 | 1010.5 |
| 20260505071228 | 69 | 229 | 2.0 | 10.0 | 0.00 | 0.00 | 0.00 | 88 | 1010.6 |
| 20260505070452 | 69 | 206 | 1.0 | 10.0 | 0.00 | 0.00 | 0.00 | 88 | 1010.7 |
| 20260505065946 | 69 | 227 | 2.0 | 5.0 | 0.00 | 0.00 | 0.00 | 88 | 1010.8 |
| 20260505065440 | 70 | 273 | 2.0 | 9.0 | 0.00 | 0.00 | 0.00 | 88 | 1010.9 |
| 20260505065206 | 70 | 143 | 3.0 | 11.0 | 0.00 | 0.00 | 0.00 | 88 | 1010.7 |
| 20260505064427 | 70 | 211 | 2.0 | 10.0 | 0.00 | 0.00 | 0.00 | 88 | 1010.8 |
| 20260505063921 | 70 | 124 | 2.0 | 10.0 | 0.00 | 0.00 | 0.00 | 87 | 1010.9 |
| 20260505063416 | 70 | 159 | 2.0 | 8.0 | 0.00 | 0.00 | 0.00 | 87 | 1011.0 |
| 20260505062910 | 70 | 134 | 2.0 | 7.0 | 0.00 | 0.00 | 0.00 | 87 | 1011.0 |
| 20260505062404 | 70 | 177 | 2.0 | 9.0 | 0.00 | 0.00 | 0.00 | 87 | 1010.9 |
| 20260505061858 | 70 | 196 | 2.0 | 9.0 | 0.00 | 0.00 | 0.00 | 87 | 1011.0 |
| 20260505061352 | 70 | 250 | 2.0 | 8.0 | 0.00 | 0.00 | 0.00 | 87 | 1010.9 |
| 20260505060845 | 70 | 238 | 2.0 | 7.0 | 0.00 | 0.00 | 0.00 | 87 | 1011.1 |
| 20260505060611 | 70 | 167 | 3.0 | 8.0 | 0.00 | 0.00 | 0.00 | 86 | 1011.1 |
| 20260505060106 | 70 | 159 | 3.0 | 11.0 | 0.00 | 0.00 | 0.00 | 86 | 1011.2 |
| 20260505055600 | 70 | 169 | 2.0 | 11.0 | 0.00 | 0.00 | 0.00 | 86 | 1011.3 |
| 20260505054822 | 71 | 217 | 3.0 | 9.0 | 0.00 | 0.00 | 0.00 | 86 | 1011.3 |
| 20260505054317 | 71 | 222 | 3.0 | 9.0 | 0.00 | 0.00 | 0.00 | 86 | 1011.4 |
| 20260505053812 | 71 | 205 | 3.0 | 7.0 | 0.00 | 0.00 | 0.00 | 86 | 1011.5 |
| 20260505053304 | 71 | 159 | 3.0 | 13.0 | 0.00 | 0.00 | 0.00 | 86 | 1011.4 |
| 20260505052758 | 71 | 175 | 3.0 | 13.0 | 0.00 | 0.00 | 0.00 | 86 | 1011.3 |
| 20260505052252 | 71 | 202 | 3.0 | 8.0 | 0.00 | 0.00 | 0.00 | 86 | 1011.4 |
| 20260505051746 | 71 | 159 | 2.0 | 9.0 | 0.00 | 0.00 | 0.00 | 86 | 1011.2 |
| 20260505051239 | 71 | 169 | 2.0 | 9.0 | 0.00 | 0.00 | 0.00 | 85 | 1011.2 |
| 20260505050733 | 71 | 119 | 3.0 | 10.0 | 0.00 | 0.00 | 0.00 | 85 | 1011.3 |
| 20260505050458 | 71 | 189 | 3.0 | 10.0 | 0.00 | 0.00 | 0.00 | 85 | 1011.3 |
| 20260505041718 | 72 | 222 | 2.0 | 6.0 | 0.00 | 0.00 | 0.00 | 82 | 1011.3 |
| 20260505041216 | 72 | 175 | 2.0 | 8.0 | 0.00 | 0.00 | 0.00 | 82 | 1011.3 |
| 20260505040713 | 73 | 195 | 2.0 | 8.0 | 0.00 | 0.00 | 0.00 | 81 | 1011.3 |
| 20260505040213 | 73 | 163 | 2.0 | 8.0 | 0.00 | 0.00 | 0.00 | 81 | 1011.2 |
| 20260505035945 | 73 | 196 | 2.0 | 8.0 | 0.00 | 0.00 | 0.00 | 81 | 1011.2 |
| 20260505035213 | 73 | 213 | 2.0 | 7.0 | 0.00 | 0.00 | 0.00 | 80 | 1011.2 |
| 20260505034714 | 73 | 156 | 2.0 | 12.0 | 0.00 | 0.00 | 0.00 | 79 | 1011.4 |
| 20260505034214 | 73 | 150 | 3.0 | 12.0 | 0.00 | 0.00 | 0.00 | 79 | 1011.2 |
| 20260505033945 | 73 | 150 | 2.0 | 9.0 | 0.00 | 0.00 | 0.00 | 79 | 1011.1 |
| 20260505033212 | 73 | 157 | 2.0 | 9.0 | 0.00 | 0.00 | 0.00 | 78 | 1011.1 |
| 20260505032941 | 73 | 226 | 2.0 | 9.0 | 0.00 | 0.00 | 0.00 | 78 | 1010.9 |
| 20260505032212 | 73 | 150 | 2.0 | 9.0 | 0.00 | 0.00 | 0.00 | 78 | 1011.0 |
| 20260505031706 | 73 | 177 | 2.0 | 8.0 | 0.00 | 0.00 | 0.00 | 77 | 1011.0 |
| 20260505031159 | 73 | 197 | 1.0 | 5.0 | 0.00 | 0.00 | 0.00 | 77 | 1010.9 |
| 20260505030653 | 74 | 200 | 1.0 | 5.0 | 0.00 | 0.00 | 0.00 | 77 | 1010.9 |
| 20260505030147 | 74 | 199 | 1.0 | 5.0 | 0.00 | 0.00 | 0.00 | 76 | 1011.1 |
| 20260505025641 | 74 | 192 | 1.0 | 4.0 | 0.00 | 0.00 | 0.00 | 76 | 1011.0 |